Regional Weather Roundup
Issued by NWS

Home | Current Version | Previous Version | Text Only | Print | Product List | Glossary Off
Versions: 1 2 3 4 5 6 7 8 9 10 11 12 13 14 15 16 17 18 19 20 21 22 23 24 25 26 27 28 29 30 31 32 33 34 35 36 37 38 39 40 41 42 43 44 45 46 47 48 49 50

000
ASUS43 KLSX 300959
RWRMO

WEATHER SUMMARY FOR MISSOURI
NATIONAL WEATHER SERVICE SPRINGFIELD MO
500 AM CDT TUE JUN 30 2015

NOTE: "FAIR" INDICATES FEW OR NO CLOUDS BELOW 12,000 FEET WITH NO
       SIGNIFICANT WEATHER AND/OR OBSTRUCTIONS TO VISIBILITY.
       CURRENT SKY AND/OR WEATHER CONDITIONS ARE NOT AVAILABLE FOR
       CHILLICOTHE AND FARMINGTON.

MOZ001>031-035>038-043-044-053-054-301100-
...NORTHERN AND WESTERN MISSOURI...

CITY           SKY/WX    TMP DP  RH WIND       PRES   REMARKS
KANSAS CTY INT CLOUDY    67  64  90 SW8       29.92S
KANSAS C DTWN  PTCLDY    72  67  84 SW6       29.91S
LEE`S SUMMIT   CLEAR     67  63  87 SW5       29.93S
ST JOSEPH      CLEAR     66  64  93 CALM      29.91F
CHILLICOTHE      N/A     66  64  93 CALM      29.91S
KIRKSVILLE     CLEAR     66  63  90 SW5       29.89S

$$
MOZ066>068-077>081-088>096-101>105-301100-
...SOUTHWEST MISSOURI...

CITY           SKY/WX    TMP DP  RH WIND       PRES   REMARKS
SPRINGFIELD    CLEAR     68  62  81 SW8       29.95S
JOPLIN         CLEAR     67  63  87 S3        29.97R

$$
MOZ032>034-039>042-045>050-055>058-069>072-301100-
...CENTRAL MISSOURI...

CITY           SKY/WX    TMP DP  RH WIND       PRES   REMARKS
COLUMBIA       CLEAR     69  65  86 W6        29.91R
JEFFERSON CITY CLEAR     68  66  93 CALM      29.89S
ROLLA          MOCLDY    67  65  93 W5        29.92R
SEDALIA        CLEAR     68  64  87 CALM      29.92S
OSAGE BEACH    MOCLDY    70  64  83 W5        29.92S

$$
MOZ051-052-059>065-301100-
...EAST CENTRAL MISSOURI...

CITY           SKY/WX    TMP DP  RH WIND       PRES   REMARKS
ST LOUIS INTL  PTCLDY    71  66  84 W5        29.87S
SPIRIT OF STL  CLEAR     67  66  97 CALM      29.87R FOG
ST CHARLES     CLEAR     69  68  96 W3        29.86S

$$
MOZ072>076-082>087-097>100-106>115-301100-
...SOUTH CENTRAL AND SOUTHEAST MISSOURI...

CITY           SKY/WX    TMP DP  RH WIND       PRES   REMARKS
CAPE GIRARDEAU CLEAR     68  66  93 CALM      29.88R
FARMINGTON     CLEAR     68  64  88 CALM      29.94R
POPLAR BLUFF   CLEAR     69  66  90 CALM      29.88R
WEST PLAINS    CLEAR     67  64  90 W6        29.95S

$$


USA.gov is the U.S. government's official web portal to all federal, state and local government web resources and services.